Tokyo, Japan

6:51 AM JST on November 21, 2018 (GMT +0900)
Tokyo (Haneda) International

Weather History for RJTT - September, 2018

Change the Weather History Date:

Friday, September 14, 2018

  Actual Average Record
Temperature  
Mean Temperature 72 °F -  
Max Temperature 75 °F 73 °F 91 °F (1999)
Min Temperature 69 °F 64 °F 60 °F (1996)
Cooling Degree Days 7    
Growing Degree Days 22 (Base 50)    
Moisture  
Dew Point 69 °F    
Average Humidity 86    
Maximum Humidity 94    
Minimum Humidity 69    
Precipitation  
Precipitation 0.00 in - - ()
Sea Level Pressure  
Sea Level Pressure 30.08 in    
Wind  
Wind Speed 6 mph ()    
Max Wind Speed 12 mph    
Max Gust Speed -    
Visibility 6.0 miles    
Events Rain    
Averages and records for this station are not official NWS values.
T = Trace of Precipitation, MM = Missing Value Source: Averaged Metar Reports

Daily Weather History Graph

Daily Weather History Graph

Search for Another Location

Airport or City:

Astronomy

Sep. 14, 2018 Rise Set
Actual Time 5:22 AM JST 5:50 PM JST
Civil Twilight 4:56 AM JST 6:15 PM JST
Nautical Twilight 4:26 AM JST 6:45 PM JST
Astronomical Twilight 3:56 AM JST 7:16 PM JST
Moon 9:49 AM JST (9/14) 8:54 PM JST (9/14)
Length of Visible Light 13h 19m
Length of Day
12h 27m
Waxing Crescent, 23% of the Moon is Illuminated
Sep 14
Waxing Crescent
Sep 17
First Quarter
Sep 25
Full
Oct 2
Last Quarter
Oct 9
New

Hourly Weather History & Observations

Time (JST) Temp. Dew Point Humidity Pressure Visibility Wind Dir Wind Speed Gust Speed Precip Events Conditions
12:00 AM 75.2 °F 69.8 °F 83% 30.09 in 6.2 mi NNE 6.9 mph - N/A Rain Light Rain
12:30 AM 75.2 °F 69.8 °F 83% 30.09 in 6.2 mi NNE 4.6 mph - N/A Rain Light Rain
1:00 AM 73.4 °F 68.0 °F 83% 30.09 in 6.2 mi NE 4.6 mph - N/A Rain Light Rain
1:30 AM 73.4 °F 69.8 °F 88% 30.09 in 6.2 mi NNE 5.8 mph - N/A Rain Light Rain
2:00 AM 73.4 °F 69.8 °F 88% 30.09 in 6.2 mi NNE 8.1 mph - N/A Rain Light Rain
2:30 AM 73.4 °F 69.8 °F 88% 30.09 in 6.2 mi North 8.1 mph - N/A Rain Light Rain
3:00 AM 73.4 °F 69.8 °F 88% 30.09 in 6.2 mi NNW 8.1 mph - N/A Rain Light Rain
3:30 AM 73.4 °F 69.8 °F 88% 30.09 in 6.2 mi North 9.2 mph - N/A Rain Light Rain
4:00 AM 73.4 °F 69.8 °F 88% 30.09 in 6.2 mi NNW 8.1 mph - N/A   Overcast
4:30 AM 73.4 °F 69.8 °F 88% 30.09 in 6.2 mi North 9.2 mph - N/A   Overcast
5:00 AM 73.4 °F 69.8 °F 88% 30.09 in 6.2 mi North 11.5 mph - N/A Rain Light Rain
5:30 AM 71.6 °F 69.8 °F 94% 30.09 in 5.6 mi NNE 10.4 mph - N/A Rain Light Rain
6:00 AM 71.6 °F 69.8 °F 94% 30.09 in 5.0 mi NNE 10.4 mph - N/A Rain Light Rain
6:30 AM 71.6 °F 69.8 °F 94% 30.09 in 5.0 mi NNE 8.1 mph - N/A Rain Light Rain
6:50 AM 71.6 °F 69.8 °F 94% 30.09 in 5.6 mi NE 8.1 mph - N/A Rain Light Rain
7:00 AM 71.6 °F 69.8 °F 94% 30.09 in 5.6 mi NNE 6.9 mph - N/A Rain Light Rain
7:30 AM 71.6 °F 69.8 °F 94% 30.12 in 5.6 mi NNE 6.9 mph - N/A Rain Light Rain
8:00 AM 71.6 °F 69.8 °F 94% 30.12 in 4.3 mi NNE 10.4 mph - N/A Rain Rain
8:14 AM 71.6 °F 69.8 °F 94% 30.12 in 4.3 mi NNE 10.4 mph - N/A Rain Light Rain
8:30 AM 71.6 °F 69.8 °F 94% 30.12 in 5.0 mi NNE 9.2 mph - N/A Rain Light Rain
9:00 AM 71.6 °F 69.8 °F 94% 30.12 in 5.6 mi NNE 9.2 mph - N/A Rain Light Rain
9:30 AM 71.6 °F 69.8 °F 94% 30.12 in 6.2 mi NE 10.4 mph - N/A Rain Light Rain
10:00 AM 71.6 °F 69.8 °F 94% 30.12 in 6.2 mi ENE 11.5 mph - N/A Rain Light Rain
10:30 AM 71.6 °F 69.8 °F 94% 30.09 in 6.2 mi ENE 8.1 mph - N/A Rain Light Rain
11:00 AM 73.4 °F 69.8 °F 88% 30.09 in 6.2 mi ENE 8.1 mph - N/A Rain Light Rain
11:30 AM 73.4 °F 69.8 °F 88% 30.09 in 6.2 mi ENE 5.8 mph - N/A   Mostly Cloudy
12:00 PM 73.4 °F 69.8 °F 88% 30.09 in 6.2 mi Variable 2.3 mph - N/A   Mostly Cloudy
12:30 PM 73.4 °F 68.0 °F 83% 30.06 in 6.2 mi SE 4.6 mph - N/A   Mostly Cloudy
1:00 PM 73.4 °F 68.0 °F 83% 30.06 in 6.2 mi Variable 1.2 mph - N/A   Mostly Cloudy
1:30 PM 73.4 °F 69.8 °F 88% 30.06 in 6.2 mi ENE 2.3 mph - N/A Rain Light Rain
2:00 PM 75.2 °F 69.8 °F 83% 30.06 in 6.2 mi ESE 3.5 mph - N/A Rain Light Rain
2:30 PM 75.2 °F 69.8 °F 83% 30.06 in 6.2 mi Variable 3.5 mph - N/A Rain Light Rain
3:00 PM 75.2 °F 64.4 °F 69% 30.06 in 6.2 mi ESE 3.5 mph - N/A   Mostly Cloudy
3:30 PM 75.2 °F 66.2 °F 73% 30.06 in 6.2 mi Variable 2.3 mph - N/A   Mostly Cloudy
4:00 PM 75.2 °F 66.2 °F 73% 30.06 in 6.2 mi Variable 1.2 mph - N/A   Mostly Cloudy
4:30 PM 75.2 °F 68.0 °F 78% 30.04 in 6.2 mi ESE 3.5 mph - N/A   Mostly Cloudy
5:00 PM 75.2 °F 68.0 °F 78% 30.06 in 6.2 mi Variable 1.2 mph - N/A   Mostly Cloudy
5:30 PM 75.2 °F 68.0 °F 78% 30.06 in 6.2 mi Variable 1.2 mph - N/A   Mostly Cloudy
6:00 PM 75.2 °F 68.0 °F 78% 30.06 in 6.2 mi Variable 2.3 mph - N/A   Mostly Cloudy
6:30 PM 75.2 °F 68.0 °F 78% 30.06 in 6.2 mi Variable 2.3 mph - N/A   Mostly Cloudy
7:00 PM 73.4 °F 68.0 °F 83% 30.06 in 6.2 mi SSE 4.6 mph - N/A   Mostly Cloudy
7:30 PM 73.4 °F 68.0 °F 83% 30.06 in 6.2 mi SSE 3.5 mph - N/A   Mostly Cloudy
8:00 PM 73.4 °F 68.0 °F 83% 30.06 in 6.2 mi SE 4.6 mph - N/A Rain Light Rain
8:30 PM 73.4 °F 69.8 °F 88% 30.06 in 6.2 mi SSE 6.9 mph - N/A Rain Light Rain
9:00 PM 71.6 °F 66.2 °F 83% 30.06 in 6.2 mi South 5.8 mph - N/A Rain Rain
9:30 PM 71.6 °F 66.2 °F 83% 30.06 in 6.2 mi SE 4.6 mph - N/A Rain Rain
10:00 PM 71.6 °F 66.2 °F 83% 30.06 in 6.2 mi Variable 2.3 mph - N/A Rain Light Rain
10:30 PM 69.8 °F 66.2 °F 88% 30.06 in 6.2 mi NNW 3.5 mph - N/A Rain Light Rain
11:00 PM 71.6 °F 66.2 °F 83% 30.06 in 6.2 mi Variable 2.3 mph - N/A Rain Light Rain
11:30 PM 69.8 °F 64.4 °F 83% 30.06 in 6.2 mi Variable 2.3 mph - N/A Rain Light Rain